Year,Month,Day,Hour,Minute,Value (Times are PST for temperature in C)
2016,08,19,00,00,21.40
2016,08,19,00,01,21.40
2016,08,19,00,02,21.30
2016,08,19,00,03,21.30
2016,08,19,00,04,21.30
2016,08,19,00,05,21.30
2016,08,19,00,06,21.30
2016,08,19,00,07,21.30
2016,08,19,00,08,21.30
2016,08,19,00,09,21.30
2016,08,19,00,10,21.40
2016,08,19,00,11,21.50
2016,08,19,00,12,21.60
2016,08,19,00,13,21.60
2016,08,19,00,14,21.70
2016,08,19,00,15,21.70
2016,08,19,00,16,21.70
2016,08,19,00,17,21.70
2016,08,19,00,18,21.70
2016,08,19,00,19,21.70
2016,08,19,00,20,21.80
2016,08,19,00,21,21.80
2016,08,19,00,22,21.90
2016,08,19,00,23,21.90
2016,08,19,00,24,22.00
2016,08,19,00,25,22.00
2016,08,19,00,26,22.00
2016,08,19,00,27,22.10
2016,08,19,00,28,22.10
2016,08,19,00,29,22.10
2016,08,19,00,30,22.10
2016,08,19,00,31,22.10
2016,08,19,00,32,22.20
2016,08,19,00,33,22.20
2016,08,19,00,34,22.20
2016,08,19,00,35,22.20
2016,08,19,00,36,22.20
2016,08,19,00,37,22.20
2016,08,19,00,38,22.30
2016,08,19,00,39,22.30
2016,08,19,00,40,22.40
2016,08,19,00,41,22.40
2016,08,19,00,42,22.40
2016,08,19,00,43,22.50
2016,08,19,00,44,22.50
2016,08,19,00,45,22.50
2016,08,19,00,46,22.50
2016,08,19,00,47,22.50
2016,08,19,00,48,22.50
2016,08,19,00,49,22.50
2016,08,19,00,50,22.50
2016,08,19,00,51,22.50
2016,08,19,00,52,22.60
2016,08,19,00,53,22.60
2016,08,19,00,54,22.60
2016,08,19,00,55,22.60
2016,08,19,00,56,22.60
2016,08,19,00,57,22.60
2016,08,19,00,58,22.60
2016,08,19,00,59,22.70
2016,08,19,01,00,22.70
2016,08,19,01,01,22.70
2016,08,19,01,02,22.70
2016,08,19,01,03,22.70
2016,08,19,01,04,22.80
2016,08,19,01,05,22.80
2016,08,19,01,06,22.90
2016,08,19,01,07,22.90
2016,08,19,01,08,23.00
2016,08,19,01,09,23.10
2016,08,19,01,10,23.20
2016,08,19,01,11,23.20
2016,08,19,01,12,23.30
2016,08,19,01,13,23.30
2016,08,19,01,14,23.40
2016,08,19,01,15,23.60
2016,08,19,01,16,23.70
2016,08,19,01,17,23.70
2016,08,19,01,18,23.70
2016,08,19,01,19,23.80
2016,08,19,01,20,23.90
2016,08,19,01,21,23.90
2016,08,19,01,22,24.00
2016,08,19,01,23,24.10
2016,08,19,01,24,24.10
2016,08,19,01,25,24.10
2016,08,19,01,26,24.10
2016,08,19,01,27,24.10
2016,08,19,01,28,24.20
2016,08,19,01,29,24.20
2016,08,19,01,30,24.30
2016,08,19,01,31,24.30
2016,08,19,01,32,24.30
2016,08,19,01,33,24.40
2016,08,19,01,34,24.40
2016,08,19,01,35,24.40
2016,08,19,01,36,24.50
2016,08,19,01,37,24.50
2016,08,19,01,38,24.50
2016,08,19,01,39,24.50
2016,08,19,01,40,24.50
2016,08,19,01,41,24.40
2016,08,19,01,42,24.40
2016,08,19,01,43,24.30
2016,08,19,01,44,24.30
2016,08,19,01,45,24.00
2016,08,19,01,46,23.60
2016,08,19,01,47,23.30
2016,08,19,01,48,23.00
2016,08,19,01,49,22.70
2016,08,19,01,50,22.40
2016,08,19,01,51,22.00
2016,08,19,01,52,21.70
2016,08,19,01,53,21.40
2016,08,19,01,54,21.10
2016,08,19,01,55,21.00
2016,08,19,01,56,20.90
2016,08,19,01,57,20.70
2016,08,19,01,58,20.50
2016,08,19,01,59,20.20
2016,08,19,02,00,19.80
2016,08,19,02,01,19.50
2016,08,19,02,02,19.20
2016,08,19,02,03,18.90
2016,08,19,02,04,18.70
2016,08,19,02,05,18.40
2016,08,19,02,06,18.10
2016,08,19,02,07,17.90
2016,08,19,02,08,17.80
2016,08,19,02,09,17.70
2016,08,19,02,10,17.60
2016,08,19,02,11,17.50
2016,08,19,02,12,17.50
2016,08,19,02,13,17.50
2016,08,19,02,14,17.40
2016,08,19,02,15,17.40
2016,08,19,02,16,17.40
2016,08,19,02,17,17.40
2016,08,19,02,18,17.50
2016,08,19,02,19,17.50
2016,08,19,02,20,17.60
2016,08,19,02,21,17.70
2016,08,19,02,22,17.70
2016,08,19,02,23,17.80
2016,08,19,02,24,17.90
2016,08,19,02,25,17.90
2016,08,19,02,26,18.00
2016,08,19,02,27,18.10
2016,08,19,02,28,18.20
2016,08,19,02,29,18.20
2016,08,19,02,30,18.30
2016,08,19,02,31,18.40
2016,08,19,02,32,18.50
2016,08,19,02,33,18.60
2016,08,19,02,34,18.80
2016,08,19,02,35,18.90
2016,08,19,02,36,19.10
2016,08,19,02,37,19.30
2016,08,19,02,38,19.60
2016,08,19,02,39,19.80
2016,08,19,02,40,20.20
2016,08,19,02,41,20.50
2016,08,19,02,42,20.70
2016,08,19,02,43,21.10
2016,08,19,02,44,21.40
2016,08,19,02,45,21.60
2016,08,19,02,46,22.00
2016,08,19,02,47,22.20
2016,08,19,02,48,22.60
2016,08,19,02,49,22.80
2016,08,19,02,50,23.10
2016,08,19,02,51,23.30
2016,08,19,02,52,23.60
2016,08,19,02,53,23.70
2016,08,19,02,54,23.80
2016,08,19,02,55,23.90
2016,08,19,02,56,23.90
2016,08,19,02,57,24.00
2016,08,19,02,58,24.10
2016,08,19,02,59,24.10
2016,08,19,03,00,24.10
2016,08,19,03,01,24.10
2016,08,19,03,02,24.10
2016,08,19,03,03,24.10
2016,08,19,03,04,24.10
2016,08,19,03,05,24.10
2016,08,19,03,06,24.00
2016,08,19,03,07,23.80
2016,08,19,03,08,23.10
2016,08,19,03,09,22.00
2016,08,19,03,10,21.00
2016,08,19,03,11,20.40
2016,08,19,03,12,19.80
2016,08,19,03,13,19.30
2016,08,19,03,14,18.80
2016,08,19,03,15,18.40
2016,08,19,03,16,18.20
2016,08,19,03,17,18.00
2016,08,19,03,18,17.90
2016,08,19,03,19,17.80
2016,08,19,03,20,17.70
2016,08,19,03,21,17.70
2016,08,19,03,22,17.70
2016,08,19,03,23,17.70
2016,08,19,03,24,17.80
2016,08,19,03,25,17.90
2016,08,19,03,26,17.90
2016,08,19,03,27,18.10
2016,08,19,03,28,18.30
2016,08,19,03,29,18.50
2016,08,19,03,30,18.80
2016,08,19,03,31,19.20
2016,08,19,03,32,19.60
2016,08,19,03,33,20.00
2016,08,19,03,34,20.40
2016,08,19,03,35,20.70
2016,08,19,03,36,20.90
2016,08,19,03,37,21.10
2016,08,19,03,38,21.30
2016,08,19,03,39,21.50
2016,08,19,03,40,21.60
2016,08,19,03,41,21.70
2016,08,19,03,42,21.80
2016,08,19,03,43,21.80
2016,08,19,03,44,21.90
2016,08,19,03,45,21.90
2016,08,19,03,46,22.00
2016,08,19,03,47,22.00
2016,08,19,03,48,22.00
2016,08,19,03,49,22.10
2016,08,19,03,50,22.10
2016,08,19,03,51,22.20
2016,08,19,03,52,22.20
2016,08,19,03,53,22.30
2016,08,19,03,54,22.30
2016,08,19,03,55,22.40
2016,08,19,03,56,22.50
2016,08,19,03,57,22.60
2016,08,19,03,58,22.60
2016,08,19,03,59,22.70
2016,08,19,04,00,22.70
2016,08,19,04,01,22.80
2016,08,19,04,02,22.80
2016,08,19,04,03,22.80
2016,08,19,04,04,22.80
2016,08,19,04,05,22.80
2016,08,19,04,06,22.80
2016,08,19,04,07,22.80
2016,08,19,04,08,22.80
2016,08,19,04,09,22.80
2016,08,19,04,10,22.80
2016,08,19,04,11,22.70
2016,08,19,04,12,22.70
2016,08,19,04,13,22.60
2016,08,19,04,14,22.50
2016,08,19,04,15,22.40
2016,08,19,04,16,22.30
2016,08,19,04,17,22.20
2016,08,19,04,18,22.10
2016,08,19,04,19,22.00
2016,08,19,04,20,21.90
2016,08,19,04,21,21.80
2016,08,19,04,22,21.70
2016,08,19,04,23,21.70
2016,08,19,04,24,21.60
2016,08,19,04,25,21.60
2016,08,19,04,26,21.60
2016,08,19,04,27,21.70
2016,08,19,04,28,21.70
2016,08,19,04,29,21.70
2016,08,19,04,30,21.80
2016,08,19,04,31,21.80
2016,08,19,04,32,21.80
2016,08,19,04,33,21.70
2016,08,19,04,34,21.70
2016,08,19,04,35,21.70
2016,08,19,04,36,21.70
2016,08,19,04,37,21.60
2016,08,19,04,38,21.60
2016,08,19,04,39,21.60
2016,08,19,04,40,21.50
2016,08,19,04,41,21.40
2016,08,19,04,42,21.40
2016,08,19,04,43,21.40
2016,08,19,04,44,21.40
2016,08,19,04,45,21.50
2016,08,19,04,46,21.60
2016,08,19,04,47,21.60
2016,08,19,04,48,21.70
2016,08,19,04,49,21.70
2016,08,19,04,50,21.80
2016,08,19,04,51,21.90
2016,08,19,04,52,22.00
2016,08,19,04,53,22.10
2016,08,19,04,54,22.10
2016,08,19,04,55,22.20
2016,08,19,04,56,22.30
2016,08,19,04,57,22.40
2016,08,19,04,58,22.50
2016,08,19,04,59,22.50
2016,08,19,05,00,22.60
2016,08,19,05,01,22.70
2016,08,19,05,02,22.70
2016,08,19,05,03,22.80
2016,08,19,05,04,22.90
2016,08,19,05,05,22.90
2016,08,19,05,06,22.90
2016,08,19,05,07,22.90
2016,08,19,05,08,22.90
2016,08,19,05,09,22.90
2016,08,19,05,10,22.90
2016,08,19,05,11,22.90
2016,08,19,05,12,22.90
2016,08,19,05,13,22.90
2016,08,19,05,14,22.90
2016,08,19,05,15,22.80
2016,08,19,05,16,22.80
2016,08,19,05,17,22.80
2016,08,19,05,18,22.70
2016,08,19,05,19,22.70
2016,08,19,05,20,22.70
2016,08,19,05,21,22.60
2016,08,19,05,22,22.60
2016,08,19,05,23,22.60
2016,08,19,05,24,22.60
2016,08,19,05,25,22.60
2016,08,19,05,26,22.60
2016,08,19,05,27,22.60
2016,08,19,05,28,22.60
2016,08,19,05,29,22.60
2016,08,19,05,30,22.60
2016,08,19,05,31,22.60
2016,08,19,05,32,22.50
2016,08,19,05,33,22.50
2016,08,19,05,34,22.50
2016,08,19,05,35,22.40
2016,08,19,05,36,22.40
2016,08,19,05,37,22.30
2016,08,19,05,38,22.30
2016,08,19,05,39,22.20
2016,08,19,05,40,22.10
2016,08,19,05,41,22.00
2016,08,19,05,42,22.00
2016,08,19,05,43,21.90
2016,08,19,05,44,21.80
2016,08,19,05,45,21.70
2016,08,19,05,46,21.60
2016,08,19,05,47,21.60
2016,08,19,05,48,21.60
2016,08,19,05,49,21.40
2016,08,19,05,50,21.40
2016,08,19,05,51,21.30
2016,08,19,05,52,21.30
2016,08,19,05,53,21.20
2016,08,19,05,54,21.10
2016,08,19,05,55,21.00
2016,08,19,05,56,21.00
2016,08,19,05,57,20.90
2016,08,19,05,58,20.90
2016,08,19,05,59,20.80
2016,08,19,06,00,20.80
2016,08,19,06,01,20.70
2016,08,19,06,02,20.60
2016,08,19,06,03,20.50
2016,08,19,06,04,20.50
2016,08,19,06,05,20.40
2016,08,19,06,06,20.30
2016,08,19,06,07,20.20
2016,08,19,06,08,20.20
2016,08,19,06,09,20.10
2016,08,19,06,10,20.00
2016,08,19,06,11,19.90
2016,08,19,06,12,19.90
2016,08,19,06,13,19.90
2016,08,19,06,14,19.80
2016,08,19,06,15,19.80
2016,08,19,06,16,19.80
2016,08,19,06,17,19.80
2016,08,19,06,18,19.70
2016,08,19,06,19,19.70
2016,08,19,06,20,19.70
2016,08,19,06,21,19.70
2016,08,19,06,22,19.60
2016,08,19,06,23,19.60
2016,08,19,06,24,19.60
2016,08,19,06,25,19.50
2016,08,19,06,26,19.50
2016,08,19,06,27,19.50
2016,08,19,06,28,19.40
2016,08,19,06,29,19.40
2016,08,19,06,30,19.40
2016,08,19,06,31,19.30
2016,08,19,06,32,19.30
2016,08,19,06,33,19.30
2016,08,19,06,34,19.30
2016,08,19,06,35,19.30
2016,08,19,06,36,19.20
2016,08,19,06,37,19.20
2016,08,19,06,38,19.30
2016,08,19,06,39,19.30
2016,08,19,06,40,19.30
2016,08,19,06,41,19.30
2016,08,19,06,42,19.30
2016,08,19,06,43,19.30
2016,08,19,06,44,19.30
2016,08,19,06,45,19.30
2016,08,19,06,46,19.30
2016,08,19,06,47,19.30
2016,08,19,06,48,19.30
2016,08,19,06,49,19.30
2016,08,19,06,50,19.40
2016,08,19,06,51,19.40
2016,08,19,06,52,19.40
2016,08,19,06,53,19.40
2016,08,19,06,54,19.40
2016,08,19,06,55,19.30
2016,08,19,06,56,19.10
2016,08,19,06,57,19.00
2016,08,19,06,58,18.90
2016,08,19,06,59,18.90
2016,08,19,07,00,18.90
2016,08,19,07,01,18.90
2016,08,19,07,02,18.90
2016,08,19,07,03,18.90
2016,08,19,07,04,18.90
2016,08,19,07,05,19.00
2016,08,19,07,06,19.10
2016,08,19,07,07,19.10
2016,08,19,07,08,19.10
2016,08,19,07,09,19.20
2016,08,19,07,10,19.20
2016,08,19,07,11,19.30
2016,08,19,07,12,19.30
2016,08,19,07,13,19.30
2016,08,19,07,14,19.30
2016,08,19,07,15,19.20
2016,08,19,07,16,19.20
2016,08,19,07,17,19.10
2016,08,19,07,18,19.10
2016,08,19,07,19,19.10
2016,08,19,07,20,19.10
2016,08,19,07,21,19.10
2016,08,19,07,22,19.20
2016,08,19,07,23,19.20
2016,08,19,07,24,19.30
2016,08,19,07,25,19.30
2016,08,19,07,26,19.40
2016,08,19,07,27,19.40
2016,08,19,07,28,19.50
2016,08,19,07,29,19.60
2016,08,19,07,30,19.70
2016,08,19,07,31,19.80
2016,08,19,07,32,19.90
2016,08,19,07,33,20.00
2016,08,19,07,34,20.10
2016,08,19,07,35,20.20
2016,08,19,07,36,20.20
2016,08,19,07,37,20.20
2016,08,19,07,38,20.30
2016,08,19,07,39,20.50
2016,08,19,07,40,20.50
2016,08,19,07,41,20.60
2016,08,19,07,42,20.70
2016,08,19,07,43,20.80
2016,08,19,07,44,20.90
2016,08,19,07,45,20.90
2016,08,19,07,46,21.00
2016,08,19,07,47,21.10
2016,08,19,07,48,21.10
2016,08,19,07,49,21.20
2016,08,19,07,50,21.30
2016,08,19,07,51,21.40
2016,08,19,07,52,21.50
2016,08,19,07,53,21.60
2016,08,19,07,54,21.60
2016,08,19,07,55,21.60
2016,08,19,07,56,21.60
2016,08,19,07,57,21.60
2016,08,19,07,58,21.60
2016,08,19,07,59,21.60
2016,08,19,08,00,21.60
2016,08,19,08,01,21.60
2016,08,19,08,02,21.60
2016,08,19,08,03,21.60
2016,08,19,08,04,21.70
2016,08,19,08,05,21.80
2016,08,19,08,06,21.90
2016,08,19,08,07,21.90
2016,08,19,08,08,22.00
2016,08,19,08,09,22.10
2016,08,19,08,10,22.20
2016,08,19,08,11,22.30
2016,08,19,08,12,22.30
2016,08,19,08,13,22.40
2016,08,19,08,14,22.40
2016,08,19,08,15,22.30
2016,08,19,08,16,22.30
2016,08,19,08,17,22.20
2016,08,19,08,18,22.20
2016,08,19,08,19,22.20
2016,08,19,08,20,22.10
2016,08,19,08,21,22.10
2016,08,19,08,22,22.10
2016,08,19,08,23,22.10
2016,08,19,08,24,22.10
2016,08,19,08,25,22.10
2016,08,19,08,26,22.10
2016,08,19,08,27,22.10
2016,08,19,08,28,22.10
2016,08,19,08,29,22.10
2016,08,19,08,30,22.20
2016,08,19,08,31,22.20
2016,08,19,08,32,22.20
2016,08,19,08,33,22.30
2016,08,19,08,34,22.20
2016,08,19,08,35,22.20
2016,08,19,08,36,22.30
2016,08,19,08,37,22.30
2016,08,19,08,38,22.30
2016,08,19,08,39,22.40
2016,08,19,08,40,22.40
2016,08,19,08,41,22.50
2016,08,19,08,42,22.60
2016,08,19,08,43,22.70
2016,08,19,08,44,22.70
2016,08,19,08,45,22.80
2016,08,19,08,46,22.90
2016,08,19,08,47,22.90
2016,08,19,08,48,22.90
2016,08,19,08,49,23.00
2016,08,19,08,50,23.00
2016,08,19,08,51,22.90
2016,08,19,08,52,22.90
2016,08,19,08,53,22.90
2016,08,19,08,54,22.90
2016,08,19,08,55,22.90
2016,08,19,08,56,23.00
2016,08,19,08,57,23.10
2016,08,19,08,58,23.20
2016,08,19,08,59,23.30
2016,08,19,09,00,23.40
2016,08,19,09,01,23.50
2016,08,19,09,02,23.60
2016,08,19,09,03,23.60
2016,08,19,09,04,23.70
2016,08,19,09,05,23.80
2016,08,19,09,06,23.90
2016,08,19,09,07,24.00
2016,08,19,09,08,24.10
2016,08,19,09,09,24.30
2016,08,19,09,10,24.40
2016,08,19,09,11,24.50
2016,08,19,09,12,24.70
2016,08,19,09,13,24.90
2016,08,19,09,14,25.00
2016,08,19,09,15,25.20
2016,08,19,09,16,25.30
2016,08,19,09,17,25.40
2016,08,19,09,18,25.50
2016,08,19,09,19,25.60
2016,08,19,09,20,25.70
2016,08,19,09,21,25.80
2016,08,19,09,22,25.90
2016,08,19,09,23,26.00
2016,08,19,09,24,26.10
2016,08,19,09,25,26.10
2016,08,19,09,26,26.10
2016,08,19,09,27,26.20
2016,08,19,09,28,26.20
2016,08,19,09,29,26.20
2016,08,19,09,30,26.20
2016,08,19,09,31,26.20
2016,08,19,09,32,26.30
2016,08,19,09,33,26.30
2016,08,19,09,34,26.40
2016,08,19,09,35,26.40
2016,08,19,09,36,26.40
2016,08,19,09,37,26.40
2016,08,19,09,38,26.50
2016,08,19,09,39,26.60
2016,08,19,09,40,26.60
2016,08,19,09,41,26.70
2016,08,19,09,42,26.80
2016,08,19,09,43,26.90
2016,08,19,09,44,26.90
2016,08,19,09,45,27.00
2016,08,19,09,46,27.10
2016,08,19,09,47,27.00
2016,08,19,09,48,27.10
2016,08,19,09,49,27.10
2016,08,19,09,50,27.10
2016,08,19,09,51,27.20
2016,08,19,09,52,27.20
2016,08,19,09,53,27.30
2016,08,19,09,54,27.30
2016,08,19,09,55,27.30
2016,08,19,09,56,27.30
2016,08,19,09,57,27.30
2016,08,19,09,58,27.30
2016,08,19,09,59,27.30
2016,08,19,10,00,27.20
2016,08,19,10,01,27.20
2016,08,19,10,02,27.20
2016,08,19,10,03,27.20
2016,08,19,10,04,27.20
2016,08,19,10,05,27.20
2016,08,19,10,06,27.20
2016,08,19,10,07,27.20
2016,08,19,10,08,27.20
2016,08,19,10,09,27.20
2016,08,19,10,10,27.20
2016,08,19,10,11,27.20
2016,08,19,10,12,27.20
2016,08,19,10,13,27.20
2016,08,19,10,14,27.10
2016,08,19,10,15,27.10
2016,08,19,10,16,27.20
2016,08,19,10,17,27.30
2016,08,19,10,18,27.30
2016,08,19,10,19,27.30
2016,08,19,10,20,27.40
2016,08,19,10,21,27.40
2016,08,19,10,22,27.40
2016,08,19,10,23,27.60
2016,08,19,10,24,27.60
2016,08,19,10,25,27.70
2016,08,19,10,26,27.80
2016,08,19,10,27,27.90
2016,08,19,10,28,27.90
2016,08,19,10,29,28.00
2016,08,19,10,30,28.10
2016,08,19,10,31,28.10
2016,08,19,10,32,28.10
2016,08,19,10,33,28.10
2016,08,19,10,34,28.10
2016,08,19,10,35,28.00
2016,08,19,10,36,28.00
2016,08,19,10,37,28.00
2016,08,19,10,38,28.00
2016,08,19,10,39,28.00
2016,08,19,10,40,28.00
2016,08,19,10,41,28.00
2016,08,19,10,42,27.90
2016,08,19,10,43,27.90
2016,08,19,10,44,27.80
2016,08,19,10,45,27.80
2016,08,19,10,46,27.80
2016,08,19,10,47,27.70
2016,08,19,10,48,27.70
2016,08,19,10,49,27.70
2016,08,19,10,50,27.70
2016,08,19,10,51,27.80
2016,08,19,10,52,27.80
2016,08,19,10,53,27.90
2016,08,19,10,54,27.90
2016,08,19,10,55,27.90
2016,08,19,10,56,27.90
2016,08,19,10,57,28.00
2016,08,19,10,58,28.00
2016,08,19,10,59,28.10
2016,08,19,11,00,28.20
2016,08,19,11,01,28.30
2016,08,19,11,02,28.40
2016,08,19,11,03,28.40
2016,08,19,11,04,28.60
2016,08,19,11,05,28.60
2016,08,19,11,06,28.60
2016,08,19,11,07,28.70
2016,08,19,11,08,28.70
2016,08,19,11,09,28.80
2016,08,19,11,10,28.90
2016,08,19,11,11,28.90
2016,08,19,11,12,28.90
2016,08,19,11,13,28.90
2016,08,19,11,14,28.90
2016,08,19,11,15,28.90
2016,08,19,11,16,28.90
2016,08,19,11,17,28.90
2016,08,19,11,18,28.90
2016,08,19,11,19,28.80
2016,08,19,11,20,28.80
2016,08,19,11,21,28.70
2016,08,19,11,22,28.60
2016,08,19,11,23,28.50
2016,08,19,11,24,28.40
2016,08,19,11,25,28.40
2016,08,19,11,26,28.40
2016,08,19,11,27,28.40
2016,08,19,11,28,28.40
2016,08,19,11,29,28.40
2016,08,19,11,30,28.40
2016,08,19,11,31,28.50
2016,08,19,11,32,28.60
2016,08,19,11,33,28.60
2016,08,19,11,34,28.70
2016,08,19,11,35,28.70
2016,08,19,11,36,28.80
2016,08,19,11,37,28.70
2016,08,19,11,38,28.60
2016,08,19,11,39,28.60
2016,08,19,11,40,28.50
2016,08,19,11,41,28.40
2016,08,19,11,42,28.40
2016,08,19,11,43,28.40
2016,08,19,11,44,28.30
2016,08,19,11,45,28.40
2016,08,19,11,46,28.40
2016,08,19,11,47,28.60
2016,08,19,11,48,28.60
2016,08,19,11,49,28.50
2016,08,19,11,50,28.40
2016,08,19,11,51,28.40
2016,08,19,11,52,28.30
2016,08,19,11,53,28.20
2016,08,19,11,54,28.20
2016,08,19,11,55,28.20
2016,08,19,11,56,28.30
2016,08,19,11,57,28.40
2016,08,19,11,58,28.50
2016,08,19,11,59,28.60
2016,08,19,12,00,28.70
2016,08,19,12,01,28.80
2016,08,19,12,02,28.90
2016,08,19,12,03,28.90
2016,08,19,12,04,28.90
2016,08,19,12,05,28.90
2016,08,19,12,06,29.00
2016,08,19,12,07,29.10
2016,08,19,12,08,29.10
2016,08,19,12,09,29.10
2016,08,19,12,10,29.00
2016,08,19,12,11,28.90
2016,08,19,12,12,28.90
2016,08,19,12,13,28.90
2016,08,19,12,14,28.90
2016,08,19,12,15,29.00
2016,08,19,12,16,29.10
2016,08,19,12,17,29.10
2016,08,19,12,18,29.00
2016,08,19,12,19,28.90
2016,08,19,12,20,28.90
2016,08,19,12,21,28.80
2016,08,19,12,22,28.70
2016,08,19,12,23,28.70
2016,08,19,12,24,28.70
2016,08,19,12,25,28.70
2016,08,19,12,26,28.60
2016,08,19,12,27,28.60
2016,08,19,12,28,28.60
2016,08,19,12,29,28.80
2016,08,19,12,30,28.90
2016,08,19,12,31,28.90
2016,08,19,12,32,28.90
2016,08,19,12,33,29.00
2016,08,19,12,34,29.10
2016,08,19,12,35,29.10
2016,08,19,12,36,29.10
2016,08,19,12,37,29.10
2016,08,19,12,38,29.10
2016,08,19,12,39,29.10
2016,08,19,12,40,29.20
2016,08,19,12,41,29.20
2016,08,19,12,42,29.30
2016,08,19,12,43,29.40
2016,08,19,12,44,29.50
2016,08,19,12,45,29.50
2016,08,19,12,46,29.50
2016,08,19,12,47,29.60
2016,08,19,12,48,29.60
2016,08,19,12,49,29.50
2016,08,19,12,50,29.50
2016,08,19,12,51,29.50
2016,08,19,12,52,29.50
2016,08,19,12,53,29.50
2016,08,19,12,54,29.60
2016,08,19,12,55,29.60
2016,08,19,12,56,29.60
2016,08,19,12,57,29.60
2016,08,19,12,58,29.70
2016,08,19,12,59,29.70
2016,08,19,13,00,29.70
2016,08,19,13,01,29.60
2016,08,19,13,02,29.50
2016,08,19,13,03,29.50
2016,08,19,13,04,29.50
2016,08,19,13,05,29.50
2016,08,19,13,06,29.60
2016,08,19,13,07,29.70
2016,08,19,13,08,29.70
2016,08,19,13,09,29.70
2016,08,19,13,10,29.70
2016,08,19,13,11,29.70
2016,08,19,13,12,29.70
2016,08,19,13,13,29.80
2016,08,19,13,14,29.80
2016,08,19,13,15,29.80
2016,08,19,13,16,29.80
2016,08,19,13,17,29.80
2016,08,19,13,18,29.80
2016,08,19,13,19,29.80
2016,08,19,13,20,29.80
2016,08,19,13,21,29.80
2016,08,19,13,22,29.70
2016,08,19,13,23,29.60
2016,08,19,13,24,29.60
2016,08,19,13,25,29.60
2016,08,19,13,26,29.60
2016,08,19,13,27,29.60
2016,08,19,13,28,29.50
2016,08,19,13,29,29.50
2016,08,19,13,30,29.60
2016,08,19,13,31,29.70
2016,08,19,13,32,29.80
2016,08,19,13,33,29.80
2016,08,19,13,34,29.80
2016,08,19,13,35,29.70
2016,08,19,13,36,29.80
2016,08,19,13,37,29.90
2016,08,19,13,38,30.00
2016,08,19,13,39,30.20
2016,08,19,13,40,30.30
2016,08,19,13,41,30.40
2016,08,19,13,42,30.40
2016,08,19,13,43,30.30
2016,08,19,13,44,30.30
2016,08,19,13,45,30.30
2016,08,19,13,46,30.40
2016,08,19,13,47,30.40
2016,08,19,13,48,30.50
2016,08,19,13,49,30.60
2016,08,19,13,50,30.70
2016,08,19,13,51,30.70
2016,08,19,13,52,30.60
2016,08,19,13,53,30.60
2016,08,19,13,54,30.70
2016,08,19,13,55,30.80
2016,08,19,13,56,30.90
2016,08,19,13,57,31.00
2016,08,19,13,58,31.10
2016,08,19,13,59,31.10
2016,08,19,14,00,31.10
2016,08,19,14,01,31.10
2016,08,19,14,02,31.20
2016,08,19,14,03,31.20
2016,08,19,14,04,31.30
2016,08,19,14,05,31.30
2016,08,19,14,06,31.20
2016,08,19,14,07,31.20
2016,08,19,14,08,31.20
2016,08,19,14,09,31.20
2016,08,19,14,10,31.30
2016,08,19,14,11,31.30
2016,08,19,14,12,31.40
2016,08,19,14,13,31.50
2016,08,19,14,14,31.60
2016,08,19,14,15,31.70
2016,08,19,14,16,31.70
2016,08,19,14,17,31.80
2016,08,19,14,18,31.90
2016,08,19,14,19,31.90
2016,08,19,14,20,31.90
2016,08,19,14,21,31.90
2016,08,19,14,22,32.00
2016,08,19,14,23,32.10
2016,08,19,14,24,31.90
2016,08,19,14,25,32.00
2016,08,19,14,26,31.90
2016,08,19,14,27,31.90
2016,08,19,14,28,31.90
2016,08,19,14,29,31.90
2016,08,19,14,30,31.80
2016,08,19,14,31,31.70
2016,08,19,14,32,31.60
2016,08,19,14,33,31.60
2016,08,19,14,34,31.70
2016,08,19,14,35,31.80
2016,08,19,14,36,32.00
2016,08,19,14,37,32.10
2016,08,19,14,38,32.30
2016,08,19,14,39,32.20
2016,08,19,14,40,32.10
2016,08,19,14,41,32.00
2016,08,19,14,42,31.90
2016,08,19,14,43,31.70
2016,08,19,14,44,31.50
2016,08,19,14,45,31.20
2016,08,19,14,46,31.10
2016,08,19,14,47,31.00
2016,08,19,14,48,30.90
2016,08,19,14,49,30.80
2016,08,19,14,50,30.80
2016,08,19,14,51,30.80
2016,08,19,14,52,30.80
2016,08,19,14,53,30.90
2016,08,19,14,54,30.90
2016,08,19,14,55,31.00
2016,08,19,14,56,31.10
2016,08,19,14,57,31.10
2016,08,19,14,58,31.10
2016,08,19,14,59,31.00
2016,08,19,15,00,30.90
2016,08,19,15,01,30.80
2016,08,19,15,02,30.70
2016,08,19,15,03,30.60
2016,08,19,15,04,30.60
2016,08,19,15,05,30.60
2016,08,19,15,06,30.60
2016,08,19,15,07,30.60
2016,08,19,15,08,30.40
2016,08,19,15,09,30.10
2016,08,19,15,10,29.80
2016,08,19,15,11,29.60
2016,08,19,15,12,29.20
2016,08,19,15,13,29.00
2016,08,19,15,14,28.80
2016,08,19,15,15,28.60
2016,08,19,15,16,28.30
2016,08,19,15,17,28.00
2016,08,19,15,18,27.80
2016,08,19,15,19,27.70
2016,08,19,15,20,27.60
2016,08,19,15,21,27.60
2016,08,19,15,22,27.60
2016,08,19,15,23,27.40
2016,08,19,15,24,27.30
2016,08,19,15,25,27.20
2016,08,19,15,26,26.90
2016,08,19,15,27,26.70
2016,08,19,15,28,26.60
2016,08,19,15,29,26.60
2016,08,19,15,30,26.60
2016,08,19,15,31,26.60
2016,08,19,15,32,26.60
2016,08,19,15,33,26.60
2016,08,19,15,34,26.60
2016,08,19,15,35,26.70
2016,08,19,15,36,26.80
2016,08,19,15,37,27.00
2016,08,19,15,38,27.10
2016,08,19,15,39,27.20
2016,08,19,15,40,27.30
2016,08,19,15,41,27.40
2016,08,19,15,42,27.50
2016,08,19,15,43,27.60
2016,08,19,15,44,27.70
2016,08,19,15,45,27.70
2016,08,19,15,46,27.80
2016,08,19,15,47,27.90
2016,08,19,15,48,27.90
2016,08,19,15,49,28.00
2016,08,19,15,50,28.00
2016,08,19,15,51,28.00
2016,08,19,15,52,28.10
2016,08,19,15,53,28.20
2016,08,19,15,54,28.30
2016,08,19,15,55,28.40
2016,08,19,15,56,28.60
2016,08,19,15,57,28.70
2016,08,19,15,58,28.90
2016,08,19,15,59,28.90
2016,08,19,16,00,29.00
2016,08,19,16,01,29.10
2016,08,19,16,02,29.10
2016,08,19,16,03,29.00
2016,08,19,16,04,28.90
2016,08,19,16,05,28.70
2016,08,19,16,06,28.70
2016,08,19,16,07,28.60
2016,08,19,16,08,28.60
2016,08,19,16,09,28.60
2016,08,19,16,10,28.50
2016,08,19,16,11,28.60
2016,08,19,16,12,28.50
2016,08,19,16,13,28.40
2016,08,19,16,14,28.30
2016,08,19,16,15,28.30
2016,08,19,16,16,28.20
2016,08,19,16,17,28.10
2016,08,19,16,18,28.10
2016,08,19,16,19,28.10
2016,08,19,16,20,28.10
2016,08,19,16,21,28.10
2016,08,19,16,22,28.10
2016,08,19,16,23,28.00
2016,08,19,16,24,28.00
2016,08,19,16,25,28.00
2016,08,19,16,26,28.10
2016,08,19,16,27,28.10
2016,08,19,16,28,28.20
2016,08,19,16,29,28.30
2016,08,19,16,30,28.40
2016,08,19,16,31,28.40
2016,08,19,16,32,28.30
2016,08,19,16,33,28.20
2016,08,19,16,34,28.10
2016,08,19,16,35,28.00
2016,08,19,16,36,27.90
2016,08,19,16,37,27.80
2016,08,19,16,38,27.60
2016,08,19,16,39,27.30
2016,08,19,16,40,26.90
2016,08,19,16,41,26.50
2016,08,19,16,42,26.10
2016,08,19,16,43,25.80
2016,08,19,16,44,25.60
2016,08,19,16,45,25.40
2016,08,19,16,46,25.40
2016,08,19,16,47,25.30
2016,08,19,16,48,25.30
2016,08,19,16,49,25.30
2016,08,19,16,50,25.20
2016,08,19,16,51,25.30
2016,08,19,16,52,25.30
2016,08,19,16,53,25.30
2016,08,19,16,54,25.40
2016,08,19,16,55,25.50
2016,08,19,16,56,25.60
2016,08,19,16,57,25.70
2016,08,19,16,58,25.80
2016,08,19,16,59,25.80
2016,08,19,17,00,25.90
2016,08,19,17,01,25.90
2016,08,19,17,02,26.10
2016,08,19,17,03,26.30
2016,08,19,17,04,26.40
2016,08,19,17,05,26.50
2016,08,19,17,06,26.60
2016,08,19,17,07,26.60
2016,08,19,17,08,26.60
2016,08,19,17,09,26.70
2016,08,19,17,10,26.90
2016,08,19,17,11,27.00
2016,08,19,17,12,27.10
2016,08,19,17,13,27.10
2016,08,19,17,14,27.10
2016,08,19,17,15,27.10
2016,08,19,17,16,27.10
2016,08,19,17,17,27.10
2016,08,19,17,18,27.10
2016,08,19,17,19,27.10